CamptonHillsWeather.com

Find the Weather for any City, State  
or Zipcode, or Country:

Campton Hills, IL Weather
Local Radar

Local Radar

Graphs, Details
Graphs and Gauges
Detailed Weather
Detailed Reports
Ajax Version (old)
Central Kane Co Summary
Davis Current Weather Graphs
Davis 24 Hour Weather History

CW3778 Data

Weather Underground
Maps
Temperature
Heat Index
Windchill
Humidity
Radar
Dew Point
Wind
Visibility
Visible Satellite
Satellite
Fronts
Snow Depth
Jet Stream
Flight Rules
Forecast Maps
Temperature Forecast
Maximum Temperature Forecast
Minimum Temperature Forecast
Dewpoint Forecast
Prevalent Weather
12Hr Probability of Precip.
Sky Cover
Health Maps
UV Forecast
Air Quality
Peak Air Quality Index
Weather Station
Davis Instruments Vantage Pro
Current Conditions [Select Refresh to Update]

Updated: 1:57am on 9/3/14

(location)
Currently:
61.7F

Clear
Clear

High: 63.6 F< 
(12:00am
Low: 61.7 F 
(1:53am)
Wind: NW 0 mph
Calm
Gust: 0 mph
Today's High Wind: 0 mph (12:00am)
Humidity: 94%
Pressure: 29.96 in  (Steady
Pressure Rate: 0.000 in/hr
Dew Point: 60.0F
Wind Chill: 61.7 F
Heat Index (feels like): 67.9 F
Comfort Level: Comfortable
Temperature Rate:  -1.00F/hr
 
5 Day Forecast
 
Wed Thu Fri Sat Sun
Clear Clear Clear Clear Clear
Partly Cloudy Partly Cloudy Chance T-storms Partly Cloudy Clear
84 90 81 72 73
70 68 59 54 52

Records and Normals
 
Temperature Forecast Normal Record
High 84 80 90
(1999)
Low 70 58 51
(1997)
 
Links
 
 
Weather Advisories
No Advisories
Full Advisory Text...
Weather Map

Web Cam

Almanac
 
Sunrise:  
6:23am
Moonrise: 
3:09pm

Moon Phase:
57%

Sunset: 
7:26pm
Moonset:  
12:12am
 Star Chart...
Rainfall Totals
Hourly Rain 0.00 in
Daily Rain: 0.00 in
Monthly Rain: 0.20 in
Yearly Rain: 27.85 in
Normal Rain, month to date: 0.06 in
Normal Rain, year to date: 22.68 in
Link to Village of Campton Hills Map

Link to Counties of Illinois Map

Local Weather Exchange Network
Station ID City 
(Click for Map Location)
Neighborhood 
(Click for History)
Last Update (Date & Time) Temperature
 ()
Dew
Point ()
Humidity 
(%)
Wind 
(mph)
from the Wind Gust 
(mph) 
Pressure(in) Hourly
Rain(in)
KILGENEV5 Geneva meso_neigh1 09/03 01:51:53 62.9 60.0 90 0 South 1 29.91 0.00
KILSTCHA10 St. Charles Hunt Club 09/03 01:51:41 60.8 60.0 98 0 NE 0 29.59 0.00
KILSOUTH6 South Elgin Thornwood 09/03 01:50:32 59.4 58.0 95 0 NE 0 29.85 0.00
KILGENEV6 Geneva Dover Ridge 09/03 01:51:49 62.6 60.0 93 0 NW 0 29.94 0.00
KILSTCHA8 St. Charles Ronzheimer Ave. & S. Tyler Rd. 09/03 01:52:16 62.7 61.0 95 0 WSW 0 29.93 0.00
KILGENEV3 Geneva Mill Creek (NE) 09/03 01:52:09 60.4 59.0 95 0 WSW 0 29.96 0.00
KILSTCHA1 St Charles CamptonHillsWeather.com Central Kane County 09/03 01:52:10 61.7 60.0 94 0 NW 0 29.96 0.00
KILELGIN13 Elgin Creek Side 09/03 01:41:47 60.7 57.0 89 0 North 0 29.08 0.00
KILSOUTH5 South Elgin Concord Park 09/03 01:49:25 59.5 59.0 99 0 NW 0 29.76 0.00
KILGENEV2 Geneva Mill Creek 09/03 01:49:28 61.4 60.0 96 0 SW 1 29.91 0.00
KILELBUR7 Elburn Cheval-De-Selle 09/03 01:51:36 57.2 55.0 93 0 SSW 0 29.90 0.00
KILBATAV1 Batavia Tri-Cities on the Fox River 09/03 01:51:45 65.0 59.0 81 0 SW 0 29.99 0.00
KILELBUR5 Elburn Prairie Highlands 09/03 01:50:15 63.8 60.0 88 0 North 0 29.95 0.00
KILBATAV3 Batavia West Batavia 09/03 01:40:17 62.3 61.0 95 0 WNW 0 29.92 0.00
KILELBUR6 Elburn Columbine Square 09/03 01:38:30 59.3 59.0 97 0 WSW 0 29.91 0.00
KILBATAV5 Batavia Fermi National Accelerator Laboratory 09/03 01:41:05 65.0 62.0 89 0 WSW 0 29.91 0.00
KILWESTC5 West Chicago THEBROWNHOUSE.ORG 09/03 01:52:15 58.9 56.0 92 0 NW 0 29.97 0.00
KILWESTC8 West Chicago Ingalton Hills Estates 09/03 01:52:10 61.0 60.0 98 0 South 0 30.08 0.00
KILBARTL1 Bartlett Amber Grove KC9TVS 09/03 01:42:01 63.3 35.0 35 0 West 0 30.09 0.00
KILNORTH11 North Aurora Waterford Oaks 09/03 01:52:14 64.1 62.0 94 0 WNW 0 29.95 0.00
KILELGIN10 Elgin Wing Park 09/03 01:42:34 61.5 59.0 91 0 West 0 29.18 0.00
KILELGIN14 Elgin Elgin, IL 09/03 01:52:14 60.4 58.0 93 0 NW 0 29.93 0.00
KILCAROL5 Carol Stream Stonehenge Court 09/03 01:50:04 63.6 46.0 53 0 East 0 29.95 0.00
KILGILBE2 Gilberts Gilberts, IL 09/03 01:52:16 60.4 59.0 96 0 SW 0 30.19 0.00
KILELGIN11 Elgin Trout Park 09/03 00:13:44 64.4 61.0 88 0 SE 0 30.02 0.00
KILWINFI3 Winfield Fredericksburg Farm 09/03 01:52:17 61.3 60.0 95 0 SSW 0 29.87 0.00
KILWINFI2 Winfield Winfield Heights (SarahNet) 09/03 01:48:03 64.5 61.0 89 0 West 0 29.94 0.00
KILSLEEP3 Sleepy Hollow SLEEPY HOLLOW 09/03 01:52:05 60.7 56.0 86 0 West 0 29.51 0.00
KILCAROL6 Carol Stream Merbach Ct 09/03 01:52:16 62.6 60.0 92 0 West 0 29.93 0.00
KILSLEEP2 Sleepy Hollow Sleepy Hollow Manor 09/03 01:51:35 58.3 55.0 90 0 NE 0 29.89 0.00
KILWARRE2 Warrenville meso_neigh31 09/03 01:52:10 62.6 61.0 95 0 North 0 29.93 0.00
KILHANOV2 Hanover Park meso_neigh32 09/03 01:52:17 62.2 62.0 98 0 ENE 0 29.98 0.00
KILWHEAT8 Wheaton Wheaton Sanitary District 09/03 01:39:33 64.7 63.0 94 0 West 0 29.95 0.00
KILWARRE4 Warrenville Cerny Park 09/03 01:49:56 63.5 63.0 99 0 NW 0 30.14 0.00
KILWHEAT5 Wheaton N9ABF - West Wheaton 09/03 01:47:17 64.3 60.0 87 0 West 0 29.96 0.00
KILSCHAU9 Schaumburg Schaumburg West 09/03 01:52:15 61.3 61.0 99 0 North 0 29.96 0.00
KILEASTD2 East Dundee Rock Road Industrial Park 09/03 01:47:53 65.1 59.0 80 1 SSW 2 29.97 0.00
KILCARPE6 Carpentersville Carpentersville 09/03 01:51:27 59.7 57.0 91 0 ESE 0 29.11 0.00
KILWHEAT11 Wheaton Wheaton SW Orth Ct 09/03 01:52:14 66.4 61.0 82 0 SE 0 30.08 0.00
KILNAPER19 Naperville Brookdale Lakes 09/03 01:52:15 65.4 63.0 91 0 NW 0 29.94 0.00
Full Advisory Text
No Warnings

Ambient Weather and Weather Underground
 Never base important decisions on this or any weather information obtained from the Internet
Updated Automatically by Ambient Weather's Virtual Weather Station  V13.01